Vorticity
nan nan nan nan nan nan nan nan nan nan nan nan nan nan nan nan nan nan nan nan nan nan nan nan nan nan nan nan nan nan nan nan nan nan nan nan nan nan nan nan nan nan nan nan nan
nan 5 6 5 6 6 6 7 7 7 6 6 8 8 9 9 14 22 22 11 9 9 8 6 5 2 1 7 8 6 5 6 10 9 4 4 6 6 9 7 3 2 7 9 nan
nan 6 6 5 6 6 7 7 6 7 7 7 7 7 8 13 18 24 21 20 15 7 5 7 8 5 4 4 5 4 4 4 5 6 6 4 5 6 6 4 12 10 9 7 nan
nan 5 5 6 6 6 6 6 7 7 6 7 7 7 11 14 10 6 3 25 22 9 8 8 5 1 7 7 2 0 6 5 2 2 3 4 4 6 5 3 5 13 14 11 nan
nan 6 6 5 6 6 6 7 6 6 9 12 12 12 14 9 5 -3 -6 14 19 11 5 4 2 1 3 6 8 6 3 6 4 4 4 6 6 5 10 8 1 5 7 11 nan
nan 5 6 5 6 8 7 6 7 10 12 10 12 16 9 -2 13 7 5 5 11 9 5 -1 1 3 6 14 3 5 3 2 6 9 10 12 7 5 7 7 7 5 3 8 nan
nan 5 5 6 6 7 6 7 10 10 10 15 18 18 14 9 -1 5 10 10 13 11 8 4 3 2 0 11 13 3 6 10 9 5 7 14 13 16 4 6 7 8 9 8 nan
nan 7 6 6 5 6 7 10 8 15 22 24 24 14 6 17 8 9 4 4 8 10 16 13 5 3 2 2 11 11 8 6 13 15 9 6 7 15 14 11 7 7 8 10 nan
nan 9 8 6 6 6 8 9 18 27 25 22 18 8 5 12 16 18 21 6 2 7 11 14 14 9 8 5 2 10 11 7 0 12 12 1 -0 5 11 12 11 10 8 8 nan
nan 8 8 8 6 6 14 20 32 20 17 9 4 4 4 4 8 12 21 21 8 7 9 8 9 10 2 13 5 1 6 2 7 8 5 0 0 4 9 9 11 9 10 7 nan
nan 9 8 8 7 14 23 24 22 8 1 2 2 -5 -3 6 4 3 12 18 12 8 11 7 0 9 10 -7 4 6 6 2 10 9 9 5 6 8 7 6 7 9 10 11 nan
nan 8 8 8 9 20 16 13 10 8 6 14 10 11 14 8 11 9 7 7 10 8 5 7 10 0 8 11 5 6 8 9 7 11 8 10 7 7 7 8 8 9 7 9 nan
nan 7 9 10 19 15 9 13 1 10 11 14 25 20 10 17 23 16 12 1 4 9 12 6 -1 10 6 8 12 8 7 8 6 4 4 7 12 12 15 13 11 9 10 10 nan
nan 8 9 19 18 7 12 6 4 11 10 15 11 5 -2 17 9 13 27 21 5 12 16 9 10 12 15 3 8 5 12 3 6 3 14 8 11 18 13 14 14 12 11 10 nan
nan 7 10 18 17 8 4 3 17 12 3 11 11 -6 1 20 13 5 16 33 20 7 11 13 15 9 9 12 2 3 11 10 8 4 7 1 7 10 9 7 12 13 12 11 nan
nan 7 16 22 14 6 5 15 16 6 6 1 -2 -4 14 15 15 10 9 23 32 17 6 9 12 18 12 8 10 8 8 16 8 9 6 8 3 4 17 12 12 11 13 13 nan
nan 11 22 18 8 7 14 15 9 0 3 2 -1 9 17 10 8 9 6 18 23 33 26 14 14 11 21 15 14 12 4 11 11 8 10 16 11 7 8 14 11 11 14 15 nan
nan 23 23 12 8 10 13 12 6 5 3 5 6 12 9 12 13 10 17 5 4 22 20 21 26 21 13 15 7 7 3 4 12 10 16 10 5 11 2 8 8 7 10 16 nan
nan 23 12 9 8 11 11 8 5 9 8 4 10 13 6 10 11 11 14 14 2 5 15 14 12 20 15 11 8 6 8 1 4 13 11 11 8 11 11 9 13 17 14 13 nan
nan 11 11 6 12 12 9 7 7 4 5 12 13 4 4 10 8 9 14 8 6 4 12 9 12 14 15 13 11 7 10 13 4 7 8 5 6 8 19 19 21 26 21 14 nan
nan 10 11 9 13 9 8 9 9 5 8 9 8 11 6 4 9 11 10 4 3 6 14 15 8 11 22 15 9 3 6 8 10 9 6 11 8 16 19 11 6 14 20 19 nan
nan 9 7 10 12 9 8 6 6 7 12 11 10 9 2 5 13 6 7 6 2 10 18 16 11 9 10 15 31 18 7 3 6 13 5 7 11 14 -3 1 8 8 9 15 nan
nan 12 8 9 9 8 10 7 8 11 8 10 9 5 6 9 11 7 2 5 5 10 13 13 12 11 13 14 9 10 10 17 7 11 21 3 5 -8 -4 6 7 8 9 12 nan
nan 11 10 9 8 2 2 14 10 10 12 12 8 5 10 11 8 5 6 6 5 12 11 16 9 9 3 1 -1 -2 1 9 19 18 13 7 6 2 0 -4 5 9 6 7 nan
nan 8 9 3 2 7 13 13 5 13 14 7 9 5 7 7 4 5 5 9 15 11 8 12 10 6 7 9 10 7 7 8 7 10 13 11 6 5 -2 5 11 2 2 9 nan
nan 10 8 6 9 9 15 11 11 11 9 7 4 5 10 8 8 7 9 10 8 4 1 8 10 12 17 16 10 10 17 18 16 12 12 10 6 8 8 10 6 0 9 12 nan
nan nan nan nan nan nan nan nan nan nan nan nan nan nan nan nan nan nan nan nan nan nan nan nan nan nan nan nan nan nan nan nan nan nan nan nan nan nan nan nan nan nan nan nan nan
CAPE
17 13 15 17 10 11 12 13 14 13 10 9 14 14 15 40 18 0 0 0 0 0 0 0 1 13 0 3 0 23 0 0 0 0 0 0 0 0 0 0 0 0 33 390 965
14 10 10 11 16 11 12 13 14 15 12 16 16 14 16 27 6 0 0 0 0 0 0 0 0 6 3 3 5 6 0 0 0 0 0 0 0 0 0 0 0 0 0 230 592
8 7 12 9 13 12 14 13 11 12 12 17 17 17 9 8 0 0 0 0 0 0 0 0 0 0 0 1 2 3 0 0 0 0 0 0 0 0 0 0 0 0 0 65 613
13 12 16 15 15 14 14 11 11 12 10 10 12 18 19 5 0 0 0 0 0 4 15 4 5 6 0 2 0 2 0 0 0 0 0 0 0 0 0 0 0 0 0 76 376
20 17 15 21 18 18 15 11 11 10 5 5 8 17 9 5 0 0 0 0 2 26 11 3 7 2 0 0 4 8 0 0 0 0 0 0 0 0 0 0 0 0 0 38 388
18 20 22 18 16 15 13 10 11 5 0 1 4 15 2 3 0 0 0 0 1 11 17 21 9 0 3 7 9 1 2 0 0 0 1 0 0 0 0 0 0 0 0 0 147
32 25 15 22 25 22 10 7 2 0 0 0 0 9 8 0 0 0 0 0 0 11 28 18 24 35 12 14 14 10 7 10 5 13 6 5 9 0 0 0 0 0 0 0 0
40 41 28 26 28 26 10 2 0 0 0 0 23 8 10 0 0 0 0 0 0 0 38 68 75 67 41 18 32 22 25 19 2 2 8 18 0 0 0 0 0 0 0 0 0
58 60 55 32 20 17 4 0 0 0 2 4 13 11 0 0 0 0 0 0 0 0 0 75 129 65 43 36 28 27 8 22 15 16 10 20 0 0 0 0 0 0 0 0 0
28 40 52 47 34 16 7 0 0 0 0 3 0 3 0 0 0 0 0 0 0 0 3 62 93 78 51 43 4 15 43 18 11 13 11 12 4 5 0 0 0 0 0 0 0
23 33 39 45 39 25 0 0 0 0 0 0 0 0 0 0 0 0 0 0 6 12 7 35 69 2 0 14 19 12 16 6 9 6 34 20 3 4 0 1 4 7 6 0 0
38 34 54 57 10 0 0 0 6 9 11 0 0 0 0 0 0 0 70 43 9 6 7 57 30 0 10 24 39 14 17 9 18 26 30 40 3 2 1 1 1 1 4 6 0
19 31 48 58 10 0 0 0 0 0 10 0 0 0 0 0 8 0 0 57 53 39 26 28 0 0 0 31 57 34 33 40 34 36 48 23 14 0 0 0 0 0 0 0 1
14 15 40 63 0 0 0 0 0 0 10 0 8 25 0 0 6 0 0 0 55 35 53 64 0 2 7 19 66 64 28 34 24 54 16 35 3 0 0 0 0 0 0 0 0
9 10 35 24 18 0 0 0 0 29 1 0 0 0 0 0 0 14 10 5 19 12 18 1 31 59 92 1 56 13 57 63 23 60 76 40 83 0 0 0 0 0 0 0 0
4 4 19 1 0 0 0 0 6 41 0 0 0 0 0 0 2 6 0 17 39 92 30 70 12 43 10 43 59 31 48 100 76 90 1 0 26 0 0 0 0 0 0 0 0
2 0 0 0 0 0 0 0 15 14 0 0 0 0 0 3 0 0 0 1 3 5 61 10 24 12 46 61 72 103 128 125 94 8 5 0 31 0 0 0 0 0 0 0 17
0 0 0 0 0 0 0 0 0 0 2 0 0 0 2 23 0 0 0 13 1 2 0 39 109 5 23 16 38 84 72 41 8 15 21 6 6 0 0 0 0 0 0 0 6
0 0 0 0 0 0 0 1 2 7 18 16 4 5 8 7 0 0 3 10 13 6 3 6 6 47 7 35 37 38 75 0 45 13 35 6 5 1 0 0 0 0 0 0 0
0 0 0 0 0 0 1 0 0 32 4 7 30 5 20 8 1 11 24 9 7 1 0 8 6 0 68 78 57 44 20 62 78 37 13 8 20 18 0 0 0 0 0 0 0
0 0 0 0 0 0 4 2 5 42 36 17 30 27 28 13 7 5 9 0 0 0 0 18 26 0 13 44 25 54 67 19 24 10 22 27 29 12 0 0 0 0 0 0 0
14 0 0 0 1 0 15 14 29 31 14 33 30 67 46 33 1 4 19 5 0 0 0 11 25 3 3 3 35 64 83 16 41 15 27 25 19 0 0 0 0 0 0 0 0
11 1 0 0 29 29 1 1 5 33 19 23 29 27 26 35 13 1 7 8 0 0 33 28 15 4 0 1 1 5 11 55 35 53 31 43 0 0 0 4 0 0 0 0 0
8 12 12 0 0 1 21 12 5 16 7 10 38 43 33 29 17 9 7 12 0 0 14 0 0 6 4 12 9 5 1 8 13 109 42 28 0 0 3 9 0 0 0 0 0
15 35 25 14 13 52 25 48 18 52 11 51 20 34 52 44 17 6 5 7 0 0 0 0 0 0 0 0 0 0 0 0 0 0 41 0 0 1 1 0 1 0 0 0 0
58 47 47 10 9 18 25 53 11 49 15 8 28 51 61 71 46 58 23 16 11 0 0 6 1 0 0 0 0 0 0 0 0 0 0 3 0 0 7 5 0 0 0 0 0
76 65 183 34 13 50 19 14 63 61 27 9 2 17 44 14 16 21 21 6 9 10 2 14 3 2 0 0 0 0 0 0 0 0 0 4 0 0 0 0 0 0 0 0 0